Regional Weather Roundup
Issued by NWS

Home | Current Version | Previous Version | Text Only | Print | Product List | Glossary On
Versions: 1 2 3 4 5 6 7 8 9 10 11 12 13 14 15 16 17 18 19 20 21 22 23 24 25 26 27 28 29 30 31 32 33 34 35 36 37 38 39 40 41 42 43 44 45 46 47 48 49 50
000
ASUS45 KCYS 232310
RWRWY

WYOMING REGIONAL WEATHER ROUNDUP
NATIONAL WEATHER SERVICE CHEYENNE WY
400 PM MST SUN NOV 23 2014

NOTE:  "FAIR" INDICATES FEW OR NO CLOUDS BELOW 12,000 FEET
WITH NO SIGNIFICANT WEATHER AND/OR OBSTRUCTIONS TO VISIBILITY.

WYZ001-240000-
YELLOWSTONE NATIONAL PARK

CITY           SKY/WX    TMP DP  RH WIND       PRES   REMARKS
LK YELLOWSTONE   N/A     22  10  60 W10G18    29.98S WCI  11
W YELLOWSTONE  NOT AVBL

$$
WYZ002>013-054>058-071-098>099-240000-
NORTHERN WYOMING

CITY           SKY/WX    TMP DP  RH WIND       PRES   REMARKS
JACKSON        CLOUDY    27  19  74 S7        30.04S WCI  19
CODY           CLEAR     37   9  30 NW15G23   29.87S WCI  28
GREYBULL       PTCLDY    38  19  46 NW17G24   29.89S WCI  28
WORLAND        PTCLDY    33  19  56 SW6       29.91R WCI  28
SHERIDAN       PTCLDY    38  17  42 NW22G30   29.84S WCI  27
BUFFALO        PTCLDY    34  13  41 NW20G26   29.82R WCI  23
GILLETTE       NOT AVBL
HULETT           N/A    N/A N/A N/A MISG        N/A
NEWCASTLE      FAIR      32  23  69 NW23G31   29.79R WCI  19

$$
WYZ014>020-022>026-101>103-240000-
CENTRAL WYOMING

CITY           SKY/WX    TMP DP  RH WIND       PRES   REMARKS
BIG PINEY      PTCLDY    39  14  36 NW17      30.03R WCI  30
PINEDALE       PTCLDY    25  14  63 NW23G29   30.01R WCI  10
DUBOIS         CLOUDY    23  10  58 W32G39    29.93F WCI   5
LANDER         NOT AVBL
RIVERTON       CLEAR     34  15  46 NW15      29.92R WCI  24
CASPER         CLEAR     32  13  45 NW15G25   29.88R WCI  22
DOUGLAS        MOCLDY   N/A N/A N/A N21G29    29.86R

$$
WYZ021-027>030-104>119-240000-
SOUTHERN WYOMING

CITY           SKY/WX    TMP DP  RH WIND       PRES   REMARKS
EVANSTON       PTCLDY    25  15  66 SW13      30.11R WCI  14
KEMMERER       CLOUDY    25  16  68 W17       30.07  WCI  11
FORT BRIDGER   MOCLDY    26  18  71 W13G23    30.12R WCI  15
ROCK SPRINGS   PTCLDY    28   8  43 NW23G31   30.00R WCI  14
DIXON          MOCLDY    29  15  54 NW21G29   29.99R WCI  16
RAWLINS        MOCLDY    27  14  58 W14G22    29.90R WCI  16
SARATOGA       FAIR      25  18  74 NW10      29.90R WCI  15
LARAMIE        MOCLDY    22  16  78 NW15      29.83R WCI   9
CHEYENNE       PTCLDY    29  11  47 NW20G28   29.82R WCI  16
TORRINGTON     PTCLDY    37  16  42 NW17      29.80R WCI  27
PINE BLUFFS    FAIR      34  10  37 NW18G24   29.80R WCI  23

$$



USA.gov is the U.S. government's official web portal to all federal, state and local government web resources and services.